TimeMST,TemperatureF,Dew PointF,Humidity,Sea Level PressureIn,VisibilityMPH,Wind Direction,Wind SpeedMPH,Gust SpeedMPH,PrecipitationIn,Events,Conditions,WindDirDegrees,DateUTC
12:15 AM,44.6,24.8,46,30.23,10.0,Calm,Calm,-,N/A,,Overcast,0,2012-11-17 07:15:00
12:35 AM,44.6,24.8,46,30.22,10.0,Calm,Calm,-,N/A,,Partly Cloudy,0,2012-11-17 07:35:00
12:55 AM,44.6,24.8,46,30.21,10.0,Calm,Calm,-,N/A,,Clear,0,2012-11-17 07:55:00
1:15 AM,42.8,26.6,53,30.21,10.0,WNW,3.5,-,N/A,,Clear,300,2012-11-17 08:15:00
1:35 AM,42.8,26.6,53,30.21,10.0,Calm,Calm,-,N/A,,Clear,0,2012-11-17 08:35:00
1:55 AM,42.8,24.8,49,30.21,10.0,Calm,Calm,-,N/A,,Clear,0,2012-11-17 08:55:00
2:15 AM,42.8,26.6,53,30.21,10.0,Calm,Calm,-,N/A,,Clear,0,2012-11-17 09:15:00
2:35 AM,42.8,24.8,49,30.21,10.0,Calm,Calm,-,N/A,,Clear,0,2012-11-17 09:35:00
2:55 AM,42.8,26.6,53,30.21,10.0,WNW,3.5,-,N/A,,Clear,300,2012-11-17 09:55:00
3:15 AM,42.8,26.6,53,30.20,10.0,WNW,3.5,-,N/A,,Clear,290,2012-11-17 10:15:00
3:35 AM,41.0,26.6,57,30.20,10.0,WNW,3.5,-,N/A,,Clear,290,2012-11-17 10:35:00
3:55 AM,41.0,26.6,57,30.20,10.0,Calm,Calm,-,N/A,,Clear,0,2012-11-17 10:55:00
4:15 AM,42.8,24.8,49,30.20,10.0,Calm,Calm,-,N/A,,Clear,0,2012-11-17 11:15:00
4:55 AM,42.8,24.8,49,30.19,10.0,Calm,Calm,-,N/A,,Clear,0,2012-11-17 11:55:00
5:15 AM,41.0,24.8,53,30.19,10.0,WNW,3.5,-,N/A,,Clear,300,2012-11-17 12:15:00
5:35 AM,39.2,24.8,56,30.19,10.0,Calm,Calm,-,N/A,,Clear,0,2012-11-17 12:35:00
5:55 AM,39.2,24.8,56,30.19,10.0,WNW,3.5,-,N/A,,Clear,300,2012-11-17 12:55:00
6:15 AM,39.2,23.0,52,30.20,10.0,Calm,Calm,-,N/A,,Clear,0,2012-11-17 13:15:00
6:35 AM,41.0,23.0,49,30.20,10.0,Calm,Calm,-,N/A,,Partly Cloudy,0,2012-11-17 13:35:00
6:55 AM,41.0,23.0,49,30.21,10.0,WNW,3.5,-,N/A,,Mostly Cloudy,300,2012-11-17 13:55:00
7:15 AM,42.8,24.8,49,30.21,10.0,Calm,Calm,-,N/A,,Overcast,0,2012-11-17 14:15:00
7:35 AM,41.0,26.6,57,30.22,10.0,Calm,Calm,-,N/A,,Overcast,0,2012-11-17 14:35:00
7:55 AM,42.8,24.8,49,30.23,10.0,Calm,Calm,-,N/A,,Mostly Cloudy,0,2012-11-17 14:55:00
8:15 AM,42.8,26.6,53,30.23,10.0,Calm,Calm,-,N/A,,Mostly Cloudy,0,2012-11-17 15:15:00
8:35 AM,42.8,26.6,53,30.23,10.0,Calm,Calm,-,N/A,,Mostly Cloudy,0,2012-11-17 15:35:00
9:15 AM,48.2,26.6,43,30.24,10.0,Calm,Calm,-,N/A,,Clear,0,2012-11-17 16:15:00
9:35 AM,50.0,28.4,43,30.25,9.0,Calm,Calm,-,N/A,,Clear,0,2012-11-17 16:35:00
10:55 AM,55.4,24.8,31,30.25,10.0,SE,6.9,-,N/A,,Partly Cloudy,130,2012-11-17 17:55:00
11:15 AM,55.4,24.8,31,30.25,10.0,SSE,5.8,-,N/A,,Partly Cloudy,160,2012-11-17 18:15:00
11:35 AM,59.0,26.6,29,30.24,10.0,South,5.8,-,N/A,,Clear,170,2012-11-17 18:35:00
11:55 AM,59.0,26.6,29,30.22,10.0,South,6.9,-,N/A,,Scattered Clouds,170,2012-11-17 18:55:00
12:15 PM,60.8,28.4,29,30.21,10.0,SSE,9.2,-,N/A,,Clear,160,2012-11-17 19:15:00
12:55 PM,60.8,30.2,31,30.20,10.0,SSE,8.1,-,N/A,,Mostly Cloudy,150,2012-11-17 19:55:00
1:15 PM,60.8,30.2,31,30.19,10.0,SSE,8.1,-,N/A,,Scattered Clouds,160,2012-11-17 20:15:00
1:55 PM,60.8,33.8,36,30.17,10.0,South,8.1,-,N/A,,Scattered Clouds,170,2012-11-17 20:55:00
2:15 PM,62.6,33.8,34,30.16,10.0,South,8.1,-,N/A,,Clear,180,2012-11-17 21:15:00
2:35 PM,60.8,35.6,39,30.16,10.0,South,11.5,16.1,N/A,,Clear,170,2012-11-17 21:35:00
3:15 PM,60.8,33.8,36,30.16,10.0,South,8.1,-,N/A,,Partly Cloudy,170,2012-11-17 22:15:00
3:35 PM,60.8,32.0,34,30.16,10.0,South,8.1,-,N/A,,Scattered Clouds,180,2012-11-17 22:35:00
3:55 PM,57.2,28.4,33,30.16,10.0,SSE,10.4,-,N/A,,Partly Cloudy,160,2012-11-17 22:55:00
4:15 PM,57.2,28.4,33,30.16,10.0,SSE,6.9,-,N/A,,Partly Cloudy,160,2012-11-17 23:15:00
4:35 PM,55.4,28.4,36,30.16,10.0,South,5.8,-,N/A,,Partly Cloudy,170,2012-11-17 23:35:00
4:55 PM,55.4,26.6,33,30.16,10.0,South,5.8,-,N/A,,Mostly Cloudy,170,2012-11-17 23:55:00
5:15 PM,55.4,26.6,33,30.16,10.0,Calm,Calm,-,N/A,,Mostly Cloudy,0,2012-11-18 00:15:00
5:35 PM,53.6,26.6,35,30.16,10.0,South,3.5,-,N/A,,Scattered Clouds,180,2012-11-18 00:35:00
5:55 PM,53.6,26.6,35,30.16,10.0,SSW,4.6,-,N/A,,Mostly Cloudy,210,2012-11-18 00:55:00
6:15 PM,53.6,26.6,35,30.16,10.0,South,3.5,-,N/A,,Scattered Clouds,180,2012-11-18 01:15:00
6:35 PM,53.6,28.4,38,30.16,10.0,South,4.6,-,N/A,,Scattered Clouds,190,2012-11-18 01:35:00
6:55 PM,51.8,28.4,41,30.16,10.0,Calm,Calm,-,N/A,,Scattered Clouds,0,2012-11-18 01:55:00
7:15 PM,51.8,28.4,41,30.16,10.0,Calm,Calm,-,N/A,,Mostly Cloudy,0,2012-11-18 02:15:00
7:35 PM,50.0,26.6,40,30.16,10.0,Calm,Calm,-,N/A,,Partly Cloudy,0,2012-11-18 02:35:00
7:55 PM,48.2,28.4,46,30.16,10.0,Calm,Calm,-,N/A,,Mostly Cloudy,0,2012-11-18 02:55:00
8:15 PM,51.8,28.4,41,30.16,10.0,SSW,3.5,-,N/A,,Scattered Clouds,200,2012-11-18 03:15:00
8:35 PM,51.8,28.4,41,30.17,10.0,South,3.5,-,N/A,,Partly Cloudy,190,2012-11-18 03:35:00
8:55 PM,51.8,28.4,41,30.18,10.0,SW,3.5,-,N/A,,Clear,230,2012-11-18 03:55:00
9:15 PM,46.4,28.4,50,30.18,10.0,Calm,Calm,-,N/A,,Clear,0,2012-11-18 04:15:00
9:35 PM,48.2,28.4,46,30.18,10.0,Calm,Calm,-,N/A,,Clear,0,2012-11-18 04:35:00
9:55 PM,50.0,26.6,40,30.18,10.0,Calm,Calm,-,N/A,,Partly Cloudy,0,2012-11-18 04:55:00
10:35 PM,44.6,28.4,53,30.18,10.0,Calm,Calm,-,N/A,,Mostly Cloudy,0,2012-11-18 05:35:00
10:55 PM,44.6,30.2,57,30.17,10.0,Calm,Calm,-,N/A,,Partly Cloudy,0,2012-11-18 05:55:00
11:15 PM,46.4,30.2,53,30.18,10.0,Calm,Calm,-,N/A,,Clear,0,2012-11-18 06:15:00
11:35 PM,46.4,32.0,57,30.18,10.0,Calm,Calm,-,N/A,,Mostly Cloudy,0,2012-11-18 06:35:00
11:55 PM,48.2,32.0,54,30.18,10.0,SE,3.5,-,N/A,,Overcast,140,2012-11-18 06:55:00